Simultaneous Nadir Overpasses (SNOs) Predictions

Prediction of SNOs over PacNW region [( 10.00, 139.50) to ( 22.70, 165.60)] between AQUA and NPP Satellites:

Table of predicted SNOs over PacNW region for the next 30.0 days since TLE Epoch: 11/13/2015
Index Date (AQUA) Time (AQUA) AQUA Lat,Lon Date (NPP) Time (NPP) NPP Lat,Lon Distance(km) Time Diff (sec)
1 11/14/2015 03:30:08 17.01, 148.80 11/14/2015 03:28:12 16.65, 147.24 171.45 116
2 11/22/2015 02:41:40 21.12, 160.26 11/22/2015 02:38:36 20.84, 158.90 144.73 184
3 11/27/2015 15:09:32 22.63, 159.90 11/27/2015 15:13:01 25.15, 157.69 358.85 209
4 11/30/2015 03:29:28 16.01, 149.12 11/30/2015 03:27:49 15.64, 147.44 184.59 99
5 12/08/2015 02:40:46 19.73, 160.71 12/08/2015 02:38:05 19.41, 159.22 160.41 161
